Theta_e
336 335 334 334 334 333 333 332 331 333 336 338 340 340 340 341 341 342 342 342 341 341 341 342 342 340 338 339 340 339 336 334 333 332 332 332 332 332 332 332 332 332 332 331 331 330 328 328 327 328 327 325 323 322 322 322 323 324 325 326 326 326 326 326 325 325 325 324 324 324 324 324 324 324 324 325 325 325 325 326 326 326 326 327 328
334 333 333 333 333 334 335 336 336 338 340 340 341 341 341 341 341 341 341 341 341 341 342 343 342 341 341 342 342 341 340 340 338 335 332 332 332 331 331 331 331 330 330 329 328 326 325 325 325 325 324 322 322 322 323 324 325 326 326 326 326 326 326 326 326 325 325 325 325 325 326 326 326 327 328 329 330 331 331 332 332 333 333 335 337
332 332 333 333 334 336 337 338 339 340 341 341 341 341 341 341 341 341 341 342 341 342 343 344 343 343 343 344 343 343 343 343 342 340 336 335 335 333 330 330 329 328 327 326 325 324 323 323 323 322 322 322 323 324 325 326 326 327 327 327 326 327 326 326 326 326 327 327 328 330 330 331 332 334 336 337 337 338 338 339 339 339 340 341 342
331 331 333 334 334 336 338 340 340 341 341 341 341 341 342 342 342 341 341 342 342 343 344 344 344 345 345 344 344 343 343 343 342 341 338 337 337 333 329 329 329 327 326 324 323 322 322 322 321 322 322 324 325 326 327 327 327 327 327 327 327 327 328 329 330 331 332 334 335 336 337 338 339 340 341 341 341 342 342 342 342 342 342 343 343
333 333 334 336 336 337 339 340 341 341 341 341 342 342 343 342 341 341 342 342 343 343 344 344 345 345 345 345 344 343 344 344 343 342 339 336 336 334 328 327 326 325 324 323 322 322 322 322 322 324 325 326 327 327 328 328 328 327 327 328 330 332 334 335 337 338 339 339 340 341 341 341 341 341 341 342 342 342 342 342 343 343 344 344 344
337 337 338 338 339 340 340 341 341 341 341 342 342 343 343 343 342 342 343 343 343 344 344 344 345 345 345 345 344 344 344 344 344 343 342 338 338 338 332 326 324 324 323 323 322 322 322 323 324 326 327 328 328 328 328 327 327 329 331 333 336 338 339 340 341 341 341 341 341 341 341 340 341 341 341 341 341 342 343 343 344 345 346 346 347
339 339 340 340 341 342 342 342 342 342 341 342 342 343 343 343 343 343 344 344 344 345 345 345 345 345 345 345 345 345 344 344 344 344 344 342 341 341 336 329 324 323 324 323 323 323 324 325 326 328 328 328 328 328 328 328 331 334 337 339 340 341 341 341 341 340 340 340 340 340 340 340 341 342 343 343 344 345 346 347 348 349 349 350 350
339 339 340 341 341 342 342 343 344 343 342 343 343 343 344 344 344 344 344 344 344 344 345 345 345 345 345 345 345 345 344 344 344 344 344 344 343 342 340 335 329 325 324 324 324 325 325 326 328 328 328 328 328 328 329 333 337 339 339 340 340 340 339 339 338 338 338 338 338 339 340 342 343 345 346 347 347 348 349 349 349 349 349 348 349
340 340 339 340 342 342 343 344 346 345 344 344 344 344 344 344 344 344 344 345 345 345 345 345 345 345 346 346 345 344 344 344 344 344 343 343 344 343 341 340 337 331 326 325 326 326 327 328 328 329 329 329 328 330 334 337 339 338 338 338 337 336 335 334 334 334 335 336 338 340 342 344 345 346 347 348 348 347 347 346 346 345 345 345 345
341 341 340 340 342 344 344 345 346 346 345 345 345 345 345 345 345 344 345 345 345 345 345 345 345 345 346 346 345 343 344 345 344 343 343 343 343 343 342 340 340 336 329 326 327 328 328 329 329 329 329 329 330 333 337 337 337 336 335 334 333 332 331 330 331 332 333 336 338 341 343 344 345 346 347 347 345 343 342 341 340 339 340 339 337
342 341 341 341 342 343 344 345 346 346 346 346 346 347 347 346 346 345 345 345 345 345 345 345 345 346 346 345 343 343 343 344 343 343 343 342 342 342 342 340 340 338 332 328 329 329 329 329 329 329 328 330 333 335 336 335 335 334 333 331 330 330 330 330 331 333 335 337 339 341 343 344 346 346 345 344 342 341 336 332 331 330 329 328 326
343 341 341 342 342 342 343 344 346 346 346 347 347 347 347 346 346 346 345 345 345 345 345 345 345 345 345 343 342 341 342 342 342 342 342 342 342 341 341 339 338 337 334 331 330 330 330 330 330 329 329 332 335 335 335 335 334 333 332 330 329 329 330 329 331 335 338 339 341 342 344 345 346 345 343 343 343 339 329 324 323 322 322 322 321
343 342 342 342 341 341 342 344 345 346 347 347 347 346 347 347 346 346 345 345 345 345 345 345 345 345 344 342 340 340 341 341 341 341 342 342 341 341 340 338 337 336 334 331 330 330 329 329 330 329 331 333 334 335 337 338 338 336 333 331 329 330 330 328 331 337 340 341 342 343 343 344 344 344 343 344 344 339 329 322 321 320 320 320 320
342 342 342 342 342 343 343 345 346 346 347 347 347 346 347 347 346 346 346 345 345 346 345 345 344 344 342 341 340 340 341 342 342 341 341 341 341 341 340 337 336 334 332 332 330 331 331 331 329 329 332 335 334 336 339 340 340 338 335 332 332 332 330 328 329 335 338 340 340 341 341 341 342 342 343 343 343 341 336 327 321 320 320 320 320
343 341 341 342 343 344 345 346 346 346 346 346 346 346 347 347 346 347 346 346 346 346 345 344 344 343 341 341 342 342 343 342 342 341 340 341 341 341 338 336 334 334 335 335 334 334 335 335 333 331 332 335 335 335 337 339 339 337 334 334 335 334 331 329 330 331 332 334 336 337 337 337 338 339 340 341 341 341 341 335 327 321 320 320 320
343 342 342 342 343 344 344 345 345 346 345 345 345 347 347 346 347 347 346 346 346 346 345 344 343 343 342 343 343 344 345 343 342 341 341 341 341 341 339 336 335 337 338 338 338 338 338 340 339 335 333 335 337 337 337 338 338 337 335 335 336 335 332 331 332 331 329 330 331 331 332 332 332 332 334 336 338 339 340 340 335 327 322 320 321
345 344 343 343 343 343 343 343 344 345 346 345 345 346 347 347 347 348 347 347 346 345 345 344 343 342 342 343 344 345 346 345 343 342 341 341 340 340 340 339 339 339 339 340 340 341 341 342 342 340 339 340 342 342 341 339 338 338 337 336 335 335 333 333 335 335 333 332 333 333 333 333 332 331 331 331 333 335 337 339 339 336 329 322 321
346 346 346 345 344 343 343 343 343 345 346 345 344 344 345 346 348 348 348 347 346 345 346 345 344 343 343 345 346 346 347 346 344 342 341 339 338 339 340 340 340 340 341 341 341 341 342 343 343 343 344 346 346 345 343 340 339 340 339 338 336 335 334 334 336 337 339 339 339 339 340 340 339 336 335 332 330 331 334 338 339 339 337 329 323
344 345 346 345 344 343 343 343 343 345 346 345 343 343 343 343 345 347 347 347 346 345 346 346 345 344 344 346 346 347 347 346 344 343 342 340 338 338 339 341 341 342 342 341 341 341 342 343 342 344 345 346 346 345 343 340 339 339 340 340 339 337 334 334 336 337 339 341 342 344 345 345 345 343 340 337 333 329 330 335 338 339 339 337 328
343 344 344 344 344 343 342 343 344 345 345 343 342 341 341 341 341 343 345 347 347 346 346 346 345 345 344 345 346 347 347 346 344 344 344 343 340 339 339 340 341 343 342 342 342 341 342 343 343 343 345 345 346 345 344 342 341 340 340 340 341 339 336 335 337 338 339 341 343 345 347 348 348 347 346 342 339 334 331 332 336 337 338 340 336
343 343 344 343 344 343 343 343 344 344 344 342 341 340 341 341 341 342 345 348 348 347 347 346 345 345 344 344 346 347 347 345 344 344 344 343 342 341 340 339 340 342 342 342 342 342 342 342 343 344 345 346 346 345 345 345 344 342 341 342 343 342 339 338 339 340 341 342 342 344 347 349 350 349 349 347 344 341 336 333 334 336 335 338 340
342 343 344 344 344 343 343 343 344 344 343 342 342 341 341 342 344 345 346 347 348 347 347 347 346 346 344 344 345 347 347 345 344 345 344 344 343 343 342 340 340 341 342 342 343 343 343 342 342 344 345 346 346 346 346 346 345 343 344 345 345 345 344 343 343 343 344 344 344 343 345 348 350 350 350 349 348 346 343 337 334 333 333 336 339
342 343 343 344 344 344 343 343 343 343 343 343 343 343 343 344 346 346 346 346 347 348 348 348 347 347 345 343 345 346 347 346 345 345 345 345 344 343 343 342 341 340 340 341 343 343 343 342 342 342 343 345 346 347 347 346 345 345 347 348 348 347 346 346 346 346 345 344 344 344 345 346 349 350 350 350 349 348 346 342 338 334 332 334 337
343 343 343 344 344 344 343 343 343 343 342 343 343 344 345 346 346 347 346 346 346 347 348 348 348 348 346 345 345 346 347 346 345 345 346 346 344 343 343 343 343 342 340 341 343 343 342 341 341 341 341 343 346 348 347 347 347 347 348 349 348 348 347 347 347 347 346 344 344 345 346 346 348 349 351 351 351 349 348 346 342 339 335 334 336
342 343 343 344 344 344 343 343 343 343 343 343 343 343 345 346 347 348 348 346 345 345 346 347 348 348 347 346 346 346 347 347 346 346 346 346 345 344 344 343 343 343 342 341 342 342 342 340 340 341 341 342 345 348 348 347 348 348 348 348 348 347 346 346 345 346 347 345 344 345 345 345 346 348 351 351 351 350 349 348 345 343 338 335 337
341 342 343 344 345 344 343 343 343 343 343 343 343 343 344 346 348 348 347 345 343 343 343 344 345 347 347 346 346 346 347 347 346 346 347 347 346 346 345 344 343 343 343 343 342 342 342 341 340 340 341 342 343 347 348 347 347 348 348 348 348 347 347 345 344 344 345 346 346 345 345 345 344 347 350 352 351 349 349 349 346 345 341 337 338
341 342 343 344 345 344 343 343 343 343 343 343 343 342 344 347 348 346 344 343 342 342 342 342 344 346 346 346 347 348 348 347 347 347 347 348 347 347 347 345 344 344 344 344 343 343 343 343 342 342 342 342 343 345 347 347 347 348 349 349 348 348 348 347 345 344 345 345 346 346 346 346 345 347 349 351 349 347 348 349 347 345 343 341 339
344 344 344 344 345 344 343 343 343 342 342 343 343 343 344 347 348 347 345 344 343 342 341 341 342 344 345 345 346 348 348 347 348 348 348 348 348 348 348 347 346 346 345 344 344 345 344 343 343 344 344 344 344 345 347 347 348 349 350 350 349 349 348 347 345 344 345 344 344 345 346 345 346 346 343 341 342 343 343 345 346 345 344 342 341
347 346 345 346 345 344 343 343 342 342 342 343 343 344 345 346 347 347 347 347 345 343 342 341 341 342 342 343 344 346 348 347 348 349 348 348 348 348 349 349 348 348 348 346 345 345 345 344 343 345 346 346 346 346 347 348 349 350 350 350 349 348 346 344 343 344 345 344 343 344 344 343 346 344 336 331 333 335 335 337 341 342 340 340 341
348 347 346 346 346 344 343 343 343 343 343 343 344 344 344 345 345 346 347 347 345 344 342 342 341 341 341 342 342 344 345 346 347 349 349 349 349 349 349 349 349 349 350 349 347 346 345 343 343 344 345 346 348 348 349 350 350 350 349 348 347 345 341 339 341 343 343 342 341 341 341 342 342 338 331 329 330 330 329 330 334 336 335 335 337
348 347 347 346 345 344 343 342 342 342 343 343 343 344 344 344 344 345 347 346 344 344 344 343 342 341 341 341 342 342 343 344 346 348 349 350 350 350 350 350 350 350 350 349 348 346 345 343 343 343 343 344 345 347 348 348 347 346 344 343 341 339 338 338 340 341 340 340 340 340 340 339 337 332 331 332 333 332 331 330 330 331 332 334 336
347 346 346 346 345 345 344 343 343 342 342 343 343 344 344 344 344 344 345 345 344 344 344 344 344 343 342 342 342 343 343 344 345 346 348 349 349 350 350 350 350 350 349 349 348 347 346 345 344 345 345 344 343 343 343 343 342 340 339 338 338 338 338 339 339 339 339 340 341 341 339 335 332 332 333 335 336 337 336 334 333 332 333 335 336
346 345 344 344 344 345 346 346 345 344 344 344 344 344 343 343 344 343 343 343 344 343 343 344 344 343 342 342 342 343 343 345 346 346 347 347 348 349 349 349 349 349 349 350 350 349 347 346 346 346 346 346 344 343 342 341 340 339 339 338 338 337 336 336 334 336 340 342 342 341 337 334 333 334 335 336 337 338 339 339 338 336 334 336 337
344 343 342 342 343 344 346 347 347 347 347 347 347 345 343 343 342 342 342 343 343 343 342 343 344 344 343 343 343 343 344 345 346 346 347 346 347 347 347 348 348 348 349 350 351 350 348 346 345 346 346 346 345 343 342 340 339 338 337 335 334 332 332 331 331 335 341 344 343 341 337 334 334 335 336 336 337 337 338 340 341 341 338 336 338
342 342 341 340 341 342 345 346 347 348 348 349 349 348 346 344 343 342 342 342 343 343 342 343 343 344 343 342 342 342 343 344 345 346 347 347 347 347 347 347 346 347 348 349 350 350 349 347 345 345 346 344 342 341 339 338 337 335 333 331 329 328 329 330 331 336 342 345 344 341 338 334 334 335 336 336 337 337 336 337 340 342 340 338 338
340 340 340 340 340 341 342 343 345 346 348 349 350 350 349 347 344 343 343 343 343 343 343 343 343 343 343 342 342 342 342 342 344 345 346 346 346 346 345 345 344 344 346 347 349 350 349 347 344 343 343 341 338 337 336 335 334 333 330 328 327 326 326 327 327 331 336 339 339 337 334 333 332 333 333 333 334 333 331 332 334 337 338 338 339
338 338 338 339 339 340 340 342 344 345 347 348 349 350 350 349 347 344 343 343 343 343 343 343 343 344 344 343 343 344 344 342 342 342 343 344 344 344 343 343 343 343 343 345 347 348 348 346 343 340 339 338 335 334 335 334 332 331 329 326 326 325 324 324 324 325 327 328 329 328 327 327 328 327 327 327 327 327 326 327 328 331 334 337 338
336 336 336 338 339 339 339 341 344 345 347 347 348 348 348 348 348 346 344 343 342 342 341 342 342 342 342 342 342 344 345 344 342 341 341 341 342 342 342 342 342 342 342 343 345 346 346 345 342 338 335 334 333 332 333 332 330 329 328 326 326 326 325 325 324 324 324 324 324 324 324 324 324 323 323 323 324 324 325 326 327 329 332 335 338
334 333 334 335 337 339 339 340 342 345 347 347 347 346 346 346 346 345 345 343 341 340 340 340 340 341 341 340 340 341 342 342 341 341 340 340 339 338 338 339 340 340 340 341 343 343 343 342 339 337 335 334 333 332 333 333 332 332 333 331 328 326 327 326 325 324 323 323 323 323 323 323 323 323 323 323 324 325 325 327 329 330 331 334 336
333 332 332 334 336 338 340 340 341 344 347 348 348 347 346 346 345 345 345 343 342 340 339 339 339 340 340 340 340 339 339 339 339 339 339 339 338 337 337 337 338 339 339 339 340 341 340 339 338 337 337 337 336 335 335 335 336 336 337 336 333 332 331 329 327 326 325 324 324 324 323 323 323 323 324 323 324 326 327 329 331 332 332 332 334
336 334 332 333 335 339 341 342 342 343 345 346 347 348 347 346 345 344 344 344 344 342 341 339 339 338 338 338 338 337 337 336 336 336 336 336 337 336 335 337 338 338 339 340 340 341 340 339 339 340 341 341 339 339 338 337 337 337 337 338 337 337 338 335 330 327 328 328 328 327 325 325 325 324 324 324 324 326 328 331 334 335 334 333 332
342 342 341 338 337 338 342 344 344 344 344 345 345 346 347 346 345 345 345 345 345 344 343 341 339 338 337 336 336 335 335 335 334 334 334 335 335 334 334 335 337 338 338 338 340 342 343 343 343 343 344 344 341 341 340 337 336 337 337 339 340 339 339 339 334 328 328 330 331 331 329 329 328 326 325 324 325 327 329 331 334 336 336 335 333
343 344 345 344 342 341 342 344 345 346 345 344 344 345 346 346 346 346 345 344 345 345 344 343 341 340 340 339 338 338 337 336 333 332 332 333 334 333 333 334 335 338 339 339 340 342 344 345 345 345 346 345 342 341 340 338 337 338 339 339 341 340 340 340 337 330 328 330 333 333 332 332 332 330 327 325 326 327 328 329 333 337 337 336 335
346 344 343 342 342 344 344 345 346 346 345 345 345 346 346 346 347 347 346 345 344 344 344 344 343 342 342 342 341 341 341 340 337 335 333 331 330 330 331 331 333 335 337 338 339 341 343 345 345 344 344 343 342 340 340 340 339 340 340 340 340 340 339 338 336 333 332 333 335 336 335 333 334 333 329 326 327 328 328 329 333 337 337 336 335
348 347 346 344 343 345 347 347 347 347 347 346 346 346 346 346 346 347 347 346 346 344 344 343 343 343 343 343 343 343 343 343 342 342 339 335 333 332 331 332 332 332 333 335 336 337 339 341 342 342 340 340 341 338 338 341 342 342 341 340 339 338 337 336 336 335 336 337 338 339 338 334 335 336 332 327 329 330 330 331 335 337 338 338 337
349 349 349 348 347 348 349 350 349 349 349 348 348 347 346 346 345 345 346 346 346 346 344 343 343 343 343 343 343 343 343 344 344 344 344 343 341 340 339 339 338 337 336 336 335 335 335 336 338 336 333 334 336 333 333 338 340 339 338 338 337 338 338 339 339 339 339 340 341 343 341 336 337 338 334 330 332 332 331 332 335 337 338 338 337
350 350 350 349 349 349 351 352 351 350 350 349 349 349 348 347 346 344 344 345 345 346 345 343 343 343 343 343 344 344 344 344 344 344 345 345 345 344 344 344 343 342 341 340 339 338 337 337 337 335 331 331 332 332 333 336 338 339 340 340 341 342 342 342 342 341 341 342 343 344 343 340 340 341 338 335 336 334 332 332 333 334 336 337 337
350 350 350 350 349 350 351 351 351 351 351 351 350 350 349 348 347 346 345 344 343 345 345 344 343 343 343 343 343 344 344 344 344 344 345 345 345 345 345 345 345 344 343 342 342 341 341 340 340 339 338 337 337 338 340 341 342 343 343 343 345 346 346 346 346 344 343 343 344 345 346 344 343 344 343 339 338 336 332 331 332 332 334 336 337
350 350 350 350 350 350 350 350 350 351 351 350 350 349 349 348 348 347 346 344 343 343 344 344 344 344 344 343 343 343 344 343 342 344 345 346 346 346 346 345 345 345 344 343 343 342 342 342 341 341 341 341 341 341 342 342 343 343 343 344 347 348 349 349 349 347 346 346 346 347 348 347 346 348 347 344 341 337 333 330 331 332 334 336 338
351 351 351 351 351 351 351 350 350 351 350 350 350 350 349 349 349 348 346 345 344 344 344 344 345 345 345 344 344 343 343 344 344 344 345 346 346 346 346 346 347 347 347 346 346 345 345 344 344 343 343 342 342 342 342 342 342 342 342 343 346 349 350 350 350 350 349 347 346 348 350 350 349 351 351 349 345 339 334 333 333 333 334 335 337
351 351 351 352 351 351 351 351 351 350 350 350 350 349 349 348 348 347 346 345 345 345 345 346 347 347 346 346 345 344 344 344 344 345 345 346 347 347 348 349 349 349 349 349 349 349 348 347 346 346 345 345 344 344 343 343 343 343 343 343 345 349 351 351 351 352 352 350 348 350 352 352 352 352 352 352 350 345 338 337 336 335 335 335 335
Wind_Speed
12 13 14 14 15 15 16 17 17 18 18 17 16 15 13 12 11 10 9 9 9 9 9 10 11 12 13 13 14 14 13 13 12 11 10 10 9 8 7 5 5 4 4 4 5 5 6 6 6 6 7 7 9 10 11 11 11 11 11 11 12 12 12 12 12 12 12 12 12 12 12 12 12 12 12 11 11 11 11 11 11 10 10 10 10
13 14 15 15 16 17 17 18 18 17 16 15 14 13 11 10 9 8 7 7 8 9 10 10 11 12 13 13 13 13 13 13 13 12 11 11 10 9 7 6 5 4 4 5 5 6 7 7 7 7 8 9 11 12 12 11 11 11 12 12 12 12 12 12 12 12 12 12 12 12 12 12 13 12 12 12 12 12 12 12 12 12 12 11 11
13 14 15 16 17 17 17 17 17 16 14 13 11 10 9 8 7 6 6 6 7 9 10 10 11 11 12 13 13 13 13 14 14 13 11 10 10 10 8 6 5 5 5 6 7 7 8 8 8 9 10 12 12 12 12 12 12 12 12 12 12 12 12 12 12 12 12 12 12 13 13 13 13 13 13 13 13 13 13 13 13 13 13 13 13
13 13 13 14 15 16 16 15 14 13 11 10 9 8 7 6 5 5 5 6 6 7 9 9 9 10 10 11 12 12 13 13 13 13 12 10 10 10 9 7 6 6 6 7 8 9 9 9 10 11 12 13 12 12 12 12 12 12 12 12 12 12 12 12 12 13 13 13 13 14 14 14 14 14 14 14 14 15 15 15 15 15 15 15 15
13 12 12 13 14 14 13 13 12 11 10 9 8 7 6 5 4 4 4 4 5 5 6 7 8 8 9 10 11 11 12 12 13 13 12 11 11 11 9 8 7 7 7 8 9 10 10 11 12 13 13 13 12 12 12 12 12 12 12 12 12 12 12 13 13 13 14 14 14 14 14 14 15 15 15 16 16 16 17 17 17 17 17 17 17
12 11 12 12 13 12 11 10 10 10 9 9 8 6 5 4 4 3 3 3 4 4 5 6 6 7 8 9 10 10 10 10 11 11 11 11 11 11 11 9 9 8 8 9 9 10 11 12 13 13 12 12 12 12 11 11 12 12 12 12 12 12 13 13 13 13 14 14 14 15 15 15 15 16 16 17 17 17 18 18 18 18 18 18 18
9 10 10 11 11 11 10 9 8 8 8 8 7 6 5 4 4 3 2 3 3 4 5 5 6 6 7 8 9 9 10 9 9 9 9 10 10 11 11 10 10 9 9 9 9 10 11 12 12 12 11 11 11 11 11 11 11 11 12 12 12 12 12 13 13 14 14 14 15 15 16 16 16 16 17 17 17 17 18 18 18 18 18 18 18
8 8 9 10 10 10 9 8 7 7 7 7 6 5 5 4 4 3 1 1 2 2 4 5 6 6 7 8 8 9 9 8 8 7 7 8 9 9 10 10 10 10 10 10 10 10 10 11 11 11 11 10 10 11 11 10 11 11 11 11 12 12 13 14 14 15 15 15 15 15 15 16 16 16 17 17 18 18 18 18 18 19 19 19 19
7 8 8 9 10 9 9 7 6 6 6 6 5 5 4 3 2 2 2 1 1 1 3 4 5 5 7 8 8 7 7 7 7 7 6 6 7 7 8 9 9 9 9 10 10 10 10 10 10 10 10 10 10 10 10 10 10 11 11 12 13 14 15 15 15 15 15 15 15 15 15 16 16 16 17 17 18 18 19 19 19 19 19 19 18
7 8 9 9 9 9 8 7 6 6 6 6 5 4 3 2 2 2 2 2 1 1 3 3 4 4 5 7 7 6 5 5 6 5 5 5 5 6 6 7 8 8 9 9 10 10 10 10 9 10 10 10 10 10 10 10 11 12 13 14 15 16 17 17 16 16 16 15 15 15 15 16 17 17 17 17 18 19 19 20 19 19 18 17 17
8 9 10 10 9 8 7 7 7 6 6 5 4 3 2 2 2 2 3 3 1 2 3 3 3 3 4 6 6 4 4 4 4 4 4 4 4 5 5 6 7 7 8 9 9 9 9 9 9 9 9 10 10 10 10 10 12 13 15 16 17 18 18 18 18 17 16 16 15 15 16 16 17 17 18 18 19 21 21 21 19 18 17 16 15
10 10 10 9 8 8 8 7 7 6 6 5 4 4 3 3 2 3 3 2 1 2 3 3 3 3 5 7 6 4 3 4 4 4 4 4 4 4 5 5 6 7 7 8 9 9 9 8 8 8 8 9 9 10 10 12 13 15 16 17 18 19 20 20 19 17 16 16 16 16 16 17 17 17 18 19 21 23 23 22 20 19 18 17 17
11 11 10 9 8 8 8 8 7 7 6 5 5 5 4 4 3 3 3 2 1 1 2 3 4 4 5 6 5 4 5 6 6 6 5 5 5 4 4 5 6 6 7 8 9 9 8 8 8 7 8 9 9 10 11 13 15 16 17 17 18 20 21 21 20 18 17 17 17 17 18 18 18 18 19 20 21 24 25 24 22 21 20 20 20
10 11 11 10 9 8 8 8 7 7 6 5 5 6 5 4 4 3 3 2 1 1 2 4 4 6 6 5 5 5 7 8 7 7 6 6 5 5 5 5 6 7 8 9 9 9 9 8 8 7 8 9 10 11 12 14 15 16 17 17 18 20 21 21 20 19 18 18 18 18 19 19 20 19 20 20 22 24 25 25 24 22 22 22 23
10 11 11 10 9 8 9 8 7 7 7 6 6 6 6 5 5 3 3 2 1 1 2 3 4 5 6 6 7 7 8 8 7 6 7 7 6 6 6 6 7 8 9 9 9 9 9 9 9 7 6 7 10 11 12 14 15 16 17 17 18 19 20 20 20 20 19 19 19 19 20 20 21 21 21 22 22 23 24 25 25 24 23 23 24
10 10 10 9 8 8 8 8 7 7 7 6 6 6 6 6 5 4 3 3 2 1 2 3 4 4 5 6 8 9 10 10 9 7 7 7 7 6 5 6 7 7 8 8 8 8 9 9 9 8 7 7 9 10 11 12 14 16 17 17 18 18 18 18 19 20 19 19 19 19 20 21 21 22 22 23 23 23 24 24 25 25 24 23 23
9 9 9 8 7 8 8 8 7 7 6 6 7 7 7 7 6 5 4 4 2 1 1 2 3 3 4 5 6 7 10 13 11 8 8 8 7 5 4 5 5 6 6 6 6 6 7 8 9 10 10 10 10 11 11 12 13 15 17 17 18 17 17 16 16 18 18 18 18 19 20 21 22 23 23 24 24 24 24 24 25 25 25 24 24
8 8 8 8 8 8 8 8 7 6 6 6 7 8 9 8 7 6 6 5 3 2 0 2 2 2 3 5 6 6 9 12 11 9 9 9 7 5 4 4 5 5 5 5 5 5 6 7 8 9 10 10 11 12 12 12 13 14 16 17 17 17 17 16 15 15 16 17 17 18 19 21 22 23 24 25 25 25 24 24 24 25 25 26 25
9 9 9 9 9 9 9 8 7 7 6 7 7 8 9 9 8 8 8 7 5 3 2 0 1 1 2 4 5 6 7 9 10 10 9 9 8 6 4 5 6 6 5 4 4 4 4 5 6 7 9 10 11 12 12 13 13 14 15 16 16 16 16 16 15 14 15 16 17 18 20 21 23 24 24 25 25 26 26 25 24 25 25 26 26
9 9 9 10 10 10 9 9 8 7 7 7 7 8 8 8 8 8 8 8 6 5 4 2 0 1 1 2 4 4 5 6 7 8 9 9 8 6 4 4 5 5 5 5 4 3 3 3 5 7 8 9 10 12 12 12 13 14 15 15 15 15 16 16 16 14 15 16 17 18 20 21 23 24 25 25 25 26 26 26 24 25 25 25 26
10 10 10 10 10 10 10 9 8 8 8 7 7 8 8 8 8 8 8 9 7 7 5 3 2 2 2 2 3 3 3 4 5 6 7 7 8 7 4 3 3 3 3 3 3 2 3 4 5 7 8 9 9 10 11 12 13 13 14 14 14 15 16 16 17 16 15 16 17 18 19 21 22 23 25 26 26 26 26 26 25 25 25 25 25
10 10 10 9 9 9 8 8 8 8 8 8 7 7 7 8 8 7 8 8 8 7 6 5 4 3 4 4 3 3 2 2 3 4 5 5 7 7 6 5 3 1 1 1 0 0 3 5 5 6 6 7 7 8 9 11 12 12 13 13 13 15 17 16 17 17 16 17 17 18 19 20 22 23 24 25 26 26 26 26 25 25 26 25 25
10 10 10 9 8 8 7 7 8 8 8 8 8 7 7 7 7 7 7 8 8 8 7 6 5 4 4 5 5 4 3 3 3 3 4 4 5 5 6 7 5 3 3 2 2 1 2 5 5 5 5 6 6 7 8 9 10 11 11 12 12 14 17 17 17 17 18 18 18 19 19 20 21 22 23 24 25 26 25 25 26 25 26 26 25
10 10 9 9 8 8 8 8 8 8 8 8 8 8 7 7 7 7 7 7 8 8 8 7 7 6 5 5 6 6 5 4 4 3 3 4 4 5 5 6 6 6 4 4 4 3 4 6 6 5 5 6 6 6 7 8 9 10 10 11 12 13 16 17 17 17 18 19 19 19 19 20 20 21 21 22 23 24 24 24 25 25 25 26 25
10 10 9 9 9 8 9 9 9 8 8 8 8 7 7 7 7 7 7 7 8 8 8 8 8 7 6 6 6 7 7 6 5 5 4 3 4 5 6 6 6 6 6 5 6 6 5 6 6 5 6 6 6 6 7 8 9 11 11 10 11 12 15 17 18 18 18 19 19 19 20 20 20 20 19 20 21 22 22 22 24 24 24 24 25
10 9 9 10 10 9 9 9 9 9 9 8 8 8 7 7 6 6 6 6 7 7 8 9 9 8 7 7 7 7 8 8 7 6 4 4 4 5 6 7 7 7 6 6 7 7 6 6 6 6 7 8 9 8 8 9 11 12 12 12 12 14 16 18 19 19 18 19 20 20 21 20 20 20 19 19 20 20 20 20 22 23 23 23 23
9 9 9 10 10 10 10 10 10 9 9 8 8 8 8 7 6 6 6 6 6 6 7 8 9 9 9 8 7 7 8 8 7 7 5 5 5 5 6 8 9 9 8 8 8 8 8 8 8 9 9 10 11 11 11 11 12 12 13 13 14 16 17 19 20 20 19 19 20 21 21 20 20 20 19 18 19 19 18 18 19 21 22 22 22
9 9 9 10 10 11 11 10 10 10 9 9 9 9 8 7 7 6 5 5 6 6 6 7 8 9 9 9 9 8 8 8 8 7 7 6 6 6 7 8 9 10 11 11 11 11 11 11 11 11 11 11 11 12 12 13 13 14 14 14 16 17 19 20 21 20 19 20 20 21 21 20 19 19 19 18 18 17 17 17 18 19 21 22 22
9 9 9 10 11 11 11 11 10 9 9 9 9 9 9 8 8 7 6 6 6 6 6 6 7 9 10 10 10 9 9 9 8 8 8 7 7 7 7 8 9 10 11 12 13 13 12 12 11 11 10 10 11 11 12 13 14 14 15 15 17 19 21 21 21 20 19 20 21 21 21 18 16 16 17 18 18 17 17 16 17 18 19 21 22
10 9 9 10 11 12 12 11 10 9 9 9 9 8 9 9 8 8 7 7 7 6 6 6 7 8 9 10 10 10 10 10 10 10 9 8 8 8 8 8 9 9 10 12 13 13 12 12 11 11 11 10 11 11 11 13 14 15 17 18 20 21 21 21 20 19 19 20 21 21 19 16 14 14 15 17 18 18 17 17 17 17 18 20 21
10 10 10 11 12 12 12 11 11 10 9 9 9 9 9 9 8 8 8 8 7 7 6 6 7 8 9 9 10 11 11 11 11 12 11 11 10 10 9 9 10 10 10 11 12 12 11 10 9 10 11 11 11 12 13 14 16 17 19 20 21 20 20 19 19 19 20 20 20 19 17 13 12 12 13 15 17 18 18 18 17 18 18 19 20
11 11 12 12 12 13 12 12 11 11 10 9 9 9 9 9 9 8 9 9 9 7 7 7 7 7 8 9 9 10 11 11 12 12 13 13 13 12 11 11 11 12 11 11 12 11 10 9 8 7 8 9 10 11 13 15 16 18 19 19 19 18 18 18 18 19 19 18 17 16 14 11 11 12 14 15 16 17 18 19 18 18 18 19 19
12 13 13 12 12 12 12 12 12 11 11 10 9 10 9 9 9 9 10 10 10 9 8 8 8 8 8 9 9 10 11 11 11 12 13 14 14 14 13 13 13 13 12 11 12 13 11 9 9 8 8 9 9 10 12 13 14 15 16 15 15 15 16 16 17 16 16 15 14 14 12 12 13 14 15 16 17 17 18 19 19 19 18 19 19
13 13 13 13 13 13 13 12 12 12 11 10 10 10 10 10 10 10 11 11 11 10 9 8 9 9 9 9 9 9 10 11 11 11 12 12 13 13 13 13 14 13 12 12 12 14 14 13 12 11 10 10 11 10 11 11 12 13 13 12 12 12 13 15 15 14 12 12 13 13 13 14 15 16 17 17 17 18 18 19 20 20 19 18 18
13 14 14 14 14 13 14 13 13 12 12 11 10 10 11 11 11 11 11 12 12 11 10 9 9 10 11 10 8 8 9 11 11 11 11 11 11 11 12 12 12 12 12 13 13 15 16 16 15 14 13 13 12 11 10 10 10 10 10 9 10 10 12 13 13 12 11 12 14 15 15 16 16 17 17 18 18 18 18 19 19 20 20 18 17
14 13 14 15 15 15 15 14 13 13 12 11 10 10 11 11 12 12 12 13 13 13 12 11 10 10 11 11 9 8 10 11 10 10 11 11 11 11 11 11 11 11 12 13 14 15 17 18 17 15 14 14 13 11 10 10 9 8 9 9 10 10 10 11 12 12 12 13 14 15 16 16 17 17 18 18 19 19 19 19 19 20 20 17 16
16 15 14 15 16 16 16 15 14 13 13 12 12 11 11 11 11 12 13 14 14 14 14 13 12 12 12 12 11 11 12 12 11 10 10 10 10 11 11 11 11 11 12 13 14 16 17 18 18 15 14 14 12 10 10 10 8 8 9 10 11 11 11 11 11 12 13 14 15 15 16 16 17 18 19 19 20 20 20 19 19 19 18 16 14
18 17 16 16 17 17 17 17 16 15 14 13 13 13 12 12 11 12 13 14 15 15 15 15 14 14 14 14 13 13 13 13 12 11 10 10 11 11 12 12 12 12 13 14 15 16 17 18 18 15 13 12 11 9 9 10 10 11 12 12 12 12 13 13 13 14 15 16 17 17 18 18 19 19 20 20 21 21 20 19 19 18 16 14 13
21 20 19 19 19 19 19 18 17 16 15 14 14 13 12 11 11 12 12 13 14 15 16 16 16 15 15 15 15 15 15 15 14 12 12 11 12 12 12 12 12 13 14 14 15 16 17 17 16 15 13 11 11 10 10 11 12 13 15 15 14 13 15 16 17 17 17 18 19 19 20 20 20 21 21 22 22 21 20 19 18 17 16 14 12
23 23 22 21 20 20 20 19 18 18 17 17 16 15 13 12 12 12 12 12 13 14 15 16 16 16 16 15 15 16 16 16 15 14 13 13 13 13 12 12 12 13 14 14 15 15 16 16 15 14 13 13 12 12 13 13 14 15 16 17 17 17 18 19 19 19 20 20 20 20 20 20 21 21 21 22 21 20 19 18 18 17 16 14 13
23 23 23 22 22 22 21 20 19 19 19 19 19 18 17 15 14 13 12 12 13 13 13 14 15 16 15 15 15 15 15 16 16 15 15 15 15 15 14 14 14 15 15 15 15 15 15 16 16 15 15 16 16 16 15 15 15 16 17 18 20 21 23 23 21 20 21 22 22 21 20 20 22 22 21 21 20 18 17 17 17 17 16 16 15
22 21 21 22 22 23 22 21 20 20 20 20 20 19 19 18 17 15 14 14 14 14 14 14 14 14 14 15 15 15 15 16 16 17 16 16 17 16 16 16 16 16 17 17 16 16 16 17 17 17 19 20 19 19 19 18 18 18 19 21 22 23 25 27 25 21 20 23 26 25 22 21 22 23 21 20 19 17 16 16 16 17 17 17 17
23 22 22 22 22 23 23 22 21 20 20 20 20 20 20 20 19 18 17 16 16 16 16 15 14 13 13 14 14 15 16 16 17 18 18 18 18 17 17 16 16 16 17 17 17 17 18 19 19 20 21 22 21 21 21 21 21 22 23 23 25 26 26 28 28 25 21 24 29 30 28 24 24 24 22 20 19 17 17 16 16 17 18 18 18
24 23 23 23 22 22 22 23 22 21 20 19 19 19 20 20 21 21 20 19 18 18 18 17 16 15 14 14 14 14 14 15 16 17 18 19 19 19 18 17 17 17 17 18 19 19 20 21 22 22 23 24 24 23 23 23 23 25 26 26 27 28 28 28 30 29 26 26 29 32 32 28 25 26 24 21 19 18 17 16 15 16 17 18 18
24 24 24 24 23 22 22 23 23 22 21 20 19 20 20 21 22 23 23 22 22 21 20 20 19 18 18 17 16 16 15 15 16 16 17 18 18 17 17 17 17 17 17 18 19 21 22 23 25 26 25 25 25 25 23 24 26 27 28 28 28 28 29 30 31 31 29 29 30 33 35 31 28 28 26 22 20 19 17 15 14 14 16 17 17
24 24 24 25 24 23 22 23 24 24 23 21 21 21 21 21 22 24 25 25 24 24 23 23 22 22 21 20 20 19 18 17 18 18 18 18 17 17 17 17 17 17 17 18 18 19 21 23 26 27 26 26 27 26 24 25 27 28 28 28 28 29 30 32 33 33 31 30 30 32 35 33 30 30 29 24 22 21 17 14 12 13 15 17 17
24 25 26 25 24 24 24 25 27 27 25 24 23 23 23 22 23 24 26 26 26 26 25 24 24 23 23 22 22 21 20 19 19 18 18 18 19 19 20 20 20 20 20 20 19 20 21 22 24 25 25 24 25 25 24 23 25 26 26 28 29 30 32 34 34 34 33 31 30 31 34 34 32 31 30 26 25 22 17 14 13 13 15 17 17
22 24 25 25 24 25 26 28 30 29 28 26 25 25 24 24 24 25 26 27 27 27 26 25 25 24 23 23 23 22 22 21 20 19 19 19 20 21 22 22 23 23 24 23 22 22 23 23 24 24 24 23 23 23 22 22 23 24 26 29 31 31 34 36 36 36 34 32 30 30 33 35 32 31 30 27 25 23 18 15 14 14 15 15 16
20 21 22 23 24 25 27 30 31 30 29 27 26 26 25 25 25 26 26 26 27 27 27 26 26 25 25 24 24 24 24 23 21 20 21 23 24 24 25 25 25 26 27 26 25 25 25 25 26 26 27 26 25 25 24 24 25 26 28 31 33 33 34 36 37 37 35 34 32 31 33 33 30 29 30 28 26 25 21 17 16 15 14 13 13
15 17 18 19 20 23 25 27 28 28 28 26 25 25 25 26 26 26 27 27 26 26 26 25 25 25 26 25 25 26 27 26 25 25 25 27 27 27 27 28 28 30 30 29 29 29 29 29 29 29 29 29 29 29 28 27 27 27 30 33 34 34 35 36 36 36 36 34 31 30 31 31 29 29 30 29 28 26 23 20 18 16 15 14 13
12 13 15 16 17 20 21 22 23 23 23 23 23 23 23 24 24 25 26 27 27 27 26 25 24 24 24 25 25 27 28 29 29 28 28 28 28 29 29 30 32 34 33 32 32 33 33 33 33 33 33 33 32 31 31 30 29 30 32 34 34 34 35 35 34 33 34 34 30 28 30 31 29 28 28 29 30 29 25 23 22 20 19 18 17
Wind_Direction
120 124 126 126 125 123 120 119 118 117 117 117 116 114 109 104 98 93 86 76 69 62 58 57 59 67 71 69 67 66 64 61 56 54 54 53 50 47 43 35 27 21 20 22 27 37 43 45 45 47 52 54 58 59 58 56 55 53 52 48 42 36 29 22 15 10 7 2 359 357 356 354 352 350 347 346 346 344 343 341 340 338 336 334 329
122 123 123 124 125 125 123 122 122 121 120 120 119 115 110 103 95 88 78 70 65 62 62 63 68 74 74 69 67 65 63 59 55 53 53 53 51 46 43 38 34 32 33 38 41 47 51 52 54 57 61 63 63 62 60 57 54 50 46 41 34 28 22 15 10 6 3 1 359 358 356 354 352 351 349 347 346 345 344 342 340 338 336 336 331
126 126 124 125 127 128 127 126 126 126 125 123 121 115 107 97 87 81 72 69 68 68 68 68 71 73 70 65 61 59 57 55 51 50 50 50 47 43 40 37 38 42 45 50 53 57 60 62 64 65 65 65 63 61 57 53 48 43 39 35 28 23 18 13 9 6 4 3 1 359 357 354 352 350 347 345 343 341 340 338 336 335 332 330 327
130 131 130 130 133 134 132 132 133 133 130 128 123 113 102 92 90 87 79 76 74 72 68 64 63 63 63 61 58 56 53 51 48 47 46 46 45 42 41 40 44 52 56 61 64 66 68 69 69 68 67 65 61 57 51 46 42 38 34 30 26 21 17 14 10 8 6 4 1 358 355 352 349 345 342 339 336 334 332 331 329 327 325 322 320
131 133 136 138 141 142 142 141 141 140 138 135 127 115 106 102 105 102 92 83 76 69 57 51 53 57 61 61 60 56 51 49 46 45 46 49 50 47 46 47 52 60 65 71 73 75 74 73 71 69 67 63 57 51 46 41 37 35 32 29 25 21 17 13 10 7 3 359 355 352 348 344 340 336 333 330 328 327 325 325 323 321 319 317 315
132 135 140 144 147 148 149 149 146 144 141 140 135 126 122 122 126 125 106 87 75 60 42 41 50 58 61 60 58 51 46 45 44 44 45 50 51 48 49 52 57 63 67 72 77 80 79 77 74 70 65 59 53 48 42 39 36 35 32 28 24 18 13 8 4 360 355 351 346 343 339 335 333 330 328 327 326 326 325 324 323 320 317 314 312
141 144 149 153 156 156 155 150 146 145 145 148 147 145 145 147 157 156 114 74 62 48 40 47 53 59 58 53 48 43 44 44 39 38 41 47 46 44 48 53 60 65 67 70 75 80 81 80 75 69 62 55 50 45 41 39 37 35 31 25 19 13 7 2 357 353 348 345 341 338 336 334 333 333 334 334 334 333 332 330 327 323 319 317 314
154 157 162 164 166 167 165 155 148 148 150 156 162 166 165 165 170 166 140 65 36 32 38 46 46 46 45 42 41 43 49 46 39 37 37 43 43 42 47 52 58 65 69 71 73 76 78 77 72 63 56 51 47 44 41 39 36 32 26 19 14 9 5 0 356 353 349 346 344 342 341 341 341 342 343 342 341 338 335 332 329 326 324 322 319
167 169 171 170 169 170 169 162 156 152 151 158 167 170 172 177 186 177 164 152 103 39 23 27 26 29 35 38 40 46 49 41 36 35 34 38 42 41 47 52 55 60 69 74 74 73 71 69 64 58 52 48 46 43 40 35 30 27 22 18 15 11 7 3 359 356 353 351 349 349 349 350 350 349 348 345 342 340 337 335 331 329 325 323 321
177 177 174 170 170 170 169 166 164 156 150 154 159 161 169 189 202 196 179 161 134 57 21 22 20 23 27 27 33 45 41 31 30 31 35 40 47 51 54 58 58 61 72 77 75 71 66 61 57 55 53 51 48 42 35 30 29 27 24 21 17 14 10 5 2 359 358 356 356 357 357 357 356 354 351 349 349 346 343 339 335 332 328 327 326
175 176 175 173 172 173 172 171 168 158 150 151 153 159 173 184 190 191 182 168 140 38 27 28 31 26 16 13 20 33 23 19 30 33 39 47 55 62 62 67 69 71 78 81 79 71 62 56 52 55 56 53 49 40 34 32 32 29 25 21 18 15 12 9 6 4 3 3 3 4 4 2 360 358 357 357 356 354 351 348 345 344 344 345 347
173 176 178 177 176 178 179 177 171 161 157 160 165 175 173 170 182 190 185 178 138 46 29 14 18 9 10 15 13 26 37 35 37 34 40 48 55 63 67 78 85 86 89 88 84 75 64 55 53 59 60 54 47 42 39 37 34 30 26 21 18 16 15 13 11 9 10 10 10 9 7 5 3 2 2 1 1 0 0 359 358 359 0 2 4
174 177 179 177 173 173 177 177 175 170 171 175 180 180 168 164 183 194 193 201 239 30 6 352 5 10 19 28 25 45 55 40 32 31 36 38 49 66 75 92 100 100 100 95 88 79 70 61 58 64 63 55 48 44 42 39 36 31 27 22 19 18 18 17 14 14 17 16 15 13 9 8 6 5 4 4 5 6 7 5 4 5 6 6 7
173 177 177 174 170 170 173 174 177 179 180 185 185 179 170 171 181 190 197 208 243 310 349 347 14 31 40 47 45 53 46 32 21 20 31 41 53 69 83 103 110 108 103 98 93 85 78 71 66 69 68 59 49 42 38 38 36 32 27 24 21 21 20 20 17 17 20 19 18 15 11 10 7 6 6 6 7 9 10 8 6 6 5 6 7
171 172 172 174 176 178 179 180 183 188 192 195 189 181 178 180 182 188 198 200 234 327 355 355 17 33 39 45 45 46 45 39 31 21 28 42 53 64 88 108 110 108 105 99 95 89 84 75 69 69 66 55 46 39 34 34 35 32 27 23 21 22 22 21 19 20 22 20 18 16 12 10 7 6 5 6 7 9 10 10 9 7 5 6 6
169 170 171 177 184 191 194 194 195 198 199 196 191 190 189 188 190 195 204 213 243 307 345 350 7 22 29 35 39 40 31 26 34 37 26 28 40 53 83 105 107 107 102 95 92 89 85 74 68 70 65 55 45 36 32 32 33 33 29 21 18 21 23 22 19 21 25 23 21 18 15 11 9 7 6 5 6 7 8 10 10 8 6 6 5
169 171 173 178 188 198 203 205 205 202 196 190 191 199 203 204 205 209 221 231 234 232 355 359 12 21 26 28 29 31 19 14 26 38 26 22 32 45 68 91 96 98 93 90 91 91 85 70 68 74 69 58 44 34 30 30 29 29 28 23 16 16 20 21 17 19 25 27 25 24 21 17 14 12 9 6 4 4 6 8 9 8 7 8 7
174 176 179 185 191 198 203 205 205 200 194 191 194 203 211 214 215 219 230 236 225 194 125 19 18 12 25 32 29 24 17 15 18 22 27 32 37 48 65 77 84 86 86 89 91 92 87 73 71 73 65 52 40 33 30 28 26 23 23 21 15 12 14 16 14 13 17 23 25 24 22 20 18 16 13 9 4 3 4 6 8 7 8 10 10
185 185 189 195 199 202 203 203 202 199 199 198 199 205 212 216 220 224 231 234 226 208 205 333 16 356 14 30 30 22 16 17 16 15 23 32 41 54 60 71 85 86 84 84 85 89 88 79 78 71 55 44 35 31 28 26 24 21 18 16 12 8 10 14 12 8 8 12 16 18 18 17 17 16 15 12 8 4 3 4 7 7 7 9 11
192 193 195 199 203 204 203 204 205 207 207 206 207 207 210 215 220 225 228 231 228 220 221 227 268 302 310 358 2 5 10 13 16 17 18 22 38 55 56 68 83 86 92 93 88 88 83 74 75 67 53 41 33 29 26 22 20 17 14 12 9 5 7 13 12 7 4 4 8 12 13 12 12 13 14 13 11 7 4 4 5 6 7 8 11
199 199 197 197 200 201 202 205 211 215 214 214 215 213 213 215 217 223 227 227 225 222 227 238 264 280 260 273 313 329 353 6 13 18 16 17 25 30 25 40 67 75 93 103 98 86 68 54 56 59 52 41 31 27 24 18 15 13 10 8 7 4 5 11 12 8 3 0 2 5 7 8 7 7 10 11 11 9 6 4 4 4 6 7 10
204 203 200 198 200 202 205 209 215 221 219 219 222 219 217 216 217 223 225 222 222 223 230 245 265 281 265 253 270 294 313 340 3 12 11 12 15 15 7 3 16 33 27 31 230 77 37 31 36 44 42 32 23 22 21 15 11 10 8 7 6 3 2 6 9 7 3 358 356 358 0 2 3 3 4 7 9 8 6 5 4 5 6 7 9
206 208 205 204 205 207 212 215 219 222 222 225 226 223 221 220 220 222 220 219 223 228 235 245 259 274 270 257 263 282 293 307 335 358 4 0 2 6 1 354 349 332 314 312 288 277 355 4 10 21 20 13 9 11 14 12 8 5 5 7 4 360 358 360 2 3 0 355 351 351 354 356 358 359 359 1 5 6 6 5 5 6 8 9 9
208 210 210 211 213 212 215 218 220 222 226 229 231 230 228 227 225 222 221 223 228 235 240 244 251 261 265 258 262 277 287 294 308 327 344 347 346 350 350 345 343 338 319 299 291 293 321 333 338 352 358 357 353 351 360 5 1 355 357 4 3 359 356 354 355 357 357 355 351 349 350 351 353 354 354 356 360 4 5 5 5 6 8 11 12
213 213 213 218 222 219 219 220 221 225 228 231 235 237 232 228 230 231 233 235 235 240 244 245 245 247 253 256 260 273 281 283 288 299 317 332 330 335 338 333 333 334 325 309 301 305 319 324 324 330 336 339 334 328 335 344 342 339 341 350 356 355 353 351 350 349 351 353 353 349 347 348 349 349 350 352 354 359 3 3 4 5 7 12 15
220 217 216 222 226 225 222 220 222 227 230 231 236 239 235 231 236 241 242 244 241 242 246 246 242 238 242 252 259 268 274 276 278 281 293 311 318 323 327 324 321 321 321 317 316 320 330 332 323 318 319 320 319 314 315 320 322 323 328 334 341 345 346 346 344 342 344 348 351 348 345 347 349 348 347 349 350 354 360 2 3 4 6 9 13
222 219 220 226 228 228 225 221 221 226 229 232 235 238 239 240 247 248 244 245 244 244 247 245 240 238 242 250 256 262 263 264 266 269 278 292 307 318 320 321 319 317 317 316 323 331 334 332 325 320 319 316 312 307 305 306 308 313 320 324 329 335 337 338 337 336 338 342 345 345 342 344 348 348 347 347 347 349 355 360 1 2 3 4 6
224 220 221 227 230 230 228 224 223 225 228 230 233 237 240 244 251 249 244 245 245 243 243 242 239 240 244 251 254 255 255 255 254 259 268 277 293 307 315 319 321 322 320 316 320 327 329 330 327 322 321 317 311 304 301 301 301 307 314 317 321 326 328 329 329 330 333 337 340 340 338 340 346 348 347 346 346 346 350 355 358 360 360 0 1
228 224 223 227 230 231 230 229 227 229 231 231 233 235 236 240 244 241 239 242 243 242 241 240 241 242 245 250 251 251 253 253 252 258 265 272 283 294 303 311 317 322 324 320 317 318 321 324 323 316 313 313 310 303 300 301 302 305 310 314 317 319 320 322 323 324 328 332 335 334 333 336 342 345 346 347 348 347 347 351 354 356 356 356 357
229 229 228 228 229 231 232 233 233 234 236 237 238 238 238 239 237 233 234 239 240 240 239 238 241 244 247 249 249 250 253 254 253 258 266 272 277 285 292 301 308 315 320 320 316 313 313 314 312 306 299 296 299 300 299 299 301 303 306 309 311 313 314 317 320 323 326 329 331 330 329 333 340 344 347 350 351 351 349 348 349 351 351 351 352
229 232 233 233 234 235 235 237 239 238 240 243 243 242 244 245 242 236 236 241 242 239 240 241 243 246 248 251 252 252 255 255 254 258 265 271 276 281 287 293 301 306 310 312 311 310 311 311 312 310 302 295 292 292 291 293 297 301 304 307 308 311 315 319 321 323 325 328 329 327 327 333 340 343 347 350 352 353 351 348 346 347 348 348 348
234 235 237 239 240 239 238 241 242 237 238 243 246 246 249 252 253 250 245 245 244 243 244 245 246 246 247 250 252 254 256 257 257 258 263 268 272 276 282 288 294 299 302 303 302 303 305 307 311 319 318 311 304 298 295 295 298 302 306 310 313 316 318 320 321 323 325 327 326 325 329 337 340 341 343 345 347 350 350 349 346 344 345 344 344
238 239 240 243 245 244 243 243 242 235 233 241 249 252 254 257 260 260 256 253 249 247 246 247 247 248 247 249 250 252 255 257 259 259 261 264 268 271 277 283 288 293 294 293 294 298 301 303 306 312 319 318 315 311 306 304 305 307 312 317 321 323 323 322 322 324 327 327 324 324 329 335 336 336 337 338 340 343 345 346 346 343 342 341 340
240 242 243 244 247 246 244 244 243 238 237 245 253 258 260 261 261 261 262 261 258 255 252 249 249 250 252 253 251 250 254 256 258 257 258 261 264 268 272 277 283 286 287 286 288 294 299 303 306 309 312 313 314 315 312 311 313 314 320 328 332 333 332 332 332 331 329 325 321 322 325 329 332 333 332 333 334 336 338 340 342 342 340 337 335
242 244 246 246 247 247 245 246 245 243 245 249 256 263 266 266 264 263 263 264 264 263 261 257 252 253 259 263 259 255 256 257 257 255 257 260 263 267 269 272 277 280 280 279 280 287 294 301 307 309 311 313 315 318 316 316 319 320 328 338 338 336 336 337 337 332 323 317 316 318 321 324 326 327 328 329 329 330 332 334 335 338 339 335 330
244 247 248 249 249 249 248 249 249 248 249 251 255 262 267 270 268 265 264 264 264 264 265 265 261 258 263 269 270 266 261 259 258 257 260 264 267 269 269 271 276 276 275 273 273 279 287 295 303 309 312 315 320 323 321 319 320 321 328 334 332 331 333 333 331 325 315 309 309 311 314 316 317 318 320 322 323 324 327 330 331 333 335 332 325
244 247 249 250 250 251 251 252 253 253 252 252 256 261 266 271 273 270 266 264 265 264 263 263 262 261 261 263 265 265 262 261 261 262 264 266 268 271 273 275 278 277 276 275 274 277 283 291 299 306 312 317 319 325 327 323 318 315 319 323 325 326 326 322 321 321 315 309 308 308 309 309 310 312 314 316 318 321 324 327 328 328 330 327 319
247 247 247 248 249 251 252 252 252 253 254 255 257 262 267 271 274 275 272 267 265 265 264 262 260 261 262 262 260 259 259 261 264 265 264 264 265 267 271 274 276 277 278 277 277 279 283 288 294 301 308 313 314 319 326 323 316 315 315 313 316 321 321 316 313 313 313 311 310 309 309 309 309 309 311 313 315 319 322 324 325 323 322 318 311
249 249 249 249 249 250 252 252 250 250 251 254 256 259 262 266 272 274 275 273 269 267 267 265 262 261 263 264 262 259 258 261 264 264 262 261 262 264 267 271 274 275 276 276 276 278 281 284 288 292 298 302 304 308 316 317 314 317 321 318 314 315 318 319 318 315 312 311 309 308 308 308 308 308 309 311 314 317 320 321 319 316 313 307 301
252 251 251 252 252 251 251 251 251 251 251 252 254 255 256 258 264 268 273 277 276 273 271 269 267 266 266 266 264 263 262 264 266 265 262 260 259 259 261 266 270 272 273 274 274 273 276 278 279 284 291 294 295 300 307 312 312 316 322 322 319 318 319 321 323 322 319 315 311 308 307 306 305 307 308 309 313 317 318 319 317 314 308 301 294
252 253 252 252 252 251 250 250 251 252 252 252 253 255 258 258 260 264 269 274 278 279 276 272 269 268 268 268 267 267 267 268 269 269 267 265 264 263 263 265 269 272 273 273 272 271 273 275 277 282 288 290 292 298 303 306 309 312 316 318 319 319 319 318 320 322 320 318 315 311 309 309 307 307 307 309 313 317 318 318 317 315 309 301 292
248 251 252 252 251 250 249 249 251 253 254 254 255 256 260 262 263 264 265 269 274 278 278 276 272 268 267 268 268 268 269 269 270 271 272 272 271 271 272 272 274 276 276 274 270 270 274 276 279 285 290 290 292 298 301 302 304 307 311 314 313 313 314 315 316 317 318 318 317 313 312 313 310 308 308 310 313 316 316 316 317 314 309 302 294
245 245 247 250 251 252 252 251 252 254 254 255 256 259 262 265 268 268 266 267 269 272 275 276 274 272 272 273 273 273 272 271 270 271 273 273 274 274 274 275 277 279 278 276 271 270 273 276 279 283 288 289 290 294 298 300 303 305 307 308 308 309 310 311 311 313 315 316 315 312 310 311 311 309 309 310 312 314 314 314 314 309 304 302 299
248 246 244 245 248 251 254 254 254 255 255 256 258 262 266 269 271 273 272 270 268 268 269 271 272 274 275 277 279 278 278 277 276 274 273 272 273 274 275 275 276 276 277 276 273 271 272 275 278 279 281 285 287 289 293 299 303 305 306 305 306 306 307 307 307 309 312 313 312 309 307 308 310 309 307 309 312 312 311 311 309 304 301 303 304
249 250 249 248 248 249 252 255 256 256 257 260 263 266 269 271 274 276 276 274 271 268 267 267 268 270 271 274 275 275 277 280 282 282 279 275 273 272 273 274 274 275 276 277 276 274 273 275 276 276 277 280 283 285 289 296 301 302 303 303 304 304 303 303 303 304 307 309 310 309 305 304 309 308 305 307 310 309 310 310 305 302 301 303 304
251 251 250 251 251 250 252 256 259 259 259 261 265 268 271 274 276 278 278 277 274 270 268 267 268 269 270 273 273 273 274 276 279 283 284 283 281 278 276 275 275 276 276 276 276 275 275 275 276 277 279 280 282 285 288 292 295 298 299 300 301 301 300 300 300 301 303 305 308 308 303 301 306 306 303 306 308 306 305 305 301 300 302 301 300
253 251 250 250 249 249 252 256 258 260 261 263 265 268 271 274 276 277 278 276 274 272 269 268 269 271 273 274 275 274 273 271 272 276 281 284 285 284 284 283 282 282 279 276 276 278 278 278 278 279 281 283 285 289 291 292 293 295 298 299 298 298 297 297 297 297 298 301 304 305 301 300 304 306 304 306 306 302 298 297 297 297 298 298 297
253 253 254 254 253 253 255 255 256 257 258 261 264 266 268 270 273 276 277 275 273 272 271 269 270 272 274 275 274 272 269 267 265 267 272 278 282 283 283 283 283 283 280 278 278 279 280 281 281 282 284 285 285 287 290 292 294 296 297 296 295 296 297 297 296 295 296 299 301 303 301 300 304 308 307 305 304 300 293 288 291 293 294 295 296
250 252 254 256 257 256 255 255 254 255 255 258 260 262 264 266 269 273 275 274 273 273 273 273 273 273 274 274 273 270 267 265 263 264 269 275 279 281 282 283 283 282 280 279 279 279 278 279 280 281 282 282 283 284 285 288 291 293 293 292 294 298 299 297 296 296 298 299 300 301 300 300 305 310 308 304 301 297 291 285 285 286 287 289 291
243 248 250 252 253 252 251 251 251 252 253 255 257 260 262 264 266 268 269 269 271 273 274 274 275 275 275 275 273 270 267 266 267 268 272 276 279 279 281 282 282 282 283 284 283 281 280 278 277 277 278 279 280 280 281 283 286 288 288 291 296 300 298 295 295 297 297 297 298 299 299 301 306 310 310 308 303 296 291 288 285 281 280 279 280
234 240 241 242 244 246 247 247 247 249 251 253 255 258 260 262 264 265 264 263 265 268 272 273 273 273 272 272 271 270 269 269 270 271 273 275 276 276 277 278 279 284 290 290 286 283 281 279 278 276 275 275 275 276 277 279 281 284 286 290 295 298 297 294 294 296 296 295 297 301 302 305 308 308 310 311 307 301 297 295 291 286 283 279 275